GLD166 SSBL-SSCK

Flight info

Callsign GLD166
Flight time 1h 8m
Altitude 6500
Route 2650S04917W 2651S04941W 2700S05022W 2657S05108W 2709S05136W 2709S05152W
Aircraft C182/M-SDFGIRY/S

Departure

Time 2026-05-07 00:51
Airport Blumenau Airport (SSBL)

Arrival

Time 2026-05-07 02:00
Airport Olavo Cecco Rigon Airport (SSCK)
Time Latitude Longitude Altitude Speed Heading
2026-05-07 00:49 -26.83420 -49.09420 49 ft 1 kts 38°
2026-05-07 00:49 -26.83445 -49.09391 50 ft 10 kts 168°
2026-05-07 00:49 -26.83519 -49.09344 49 ft 12 kts 96°
2026-05-07 00:49 -26.83520 -49.09324 49 ft 0 kts 90°
2026-05-07 00:50 -26.83520 -49.09322 50 ft 2 kts 89°
2026-05-07 00:50 -26.83446 -49.09286 53 ft 31 kts 348°
2026-05-07 00:50 -26.83076 -49.09376 54 ft 75 kts 349°
2026-05-07 00:51 -26.82526 -49.09524 258 ft 84 kts 345°
2026-05-07 00:51 -26.82119 -49.09933 571 ft 86 kts 286°
2026-05-07 00:51 -26.82342 -49.10533 859 ft 84 kts 220°
2026-05-07 00:51 -26.82827 -49.10968 1059 ft 100 kts 217°
2026-05-07 00:52 -26.83437 -49.11442 1260 ft 113 kts 217°
2026-05-07 00:52 -26.83683 -49.12313 1378 ft 128 kts 272°
2026-05-07 00:52 -26.83691 -49.13333 1561 ft 134 kts 269°
2026-05-07 00:52 -26.83708 -49.14389 1746 ft 137 kts 274°
2026-05-07 00:53 -26.83595 -49.15464 1926 ft 141 kts 279°
2026-05-07 00:53 -26.83477 -49.16561 2097 ft 143 kts 278°
2026-05-07 00:53 -26.83361 -49.17671 2265 ft 144 kts 278°
2026-05-07 00:53 -26.83250 -49.18786 2442 ft 144 kts 278°
2026-05-07 00:54 -26.83143 -49.19898 2614 ft 144 kts 278°
2026-05-07 00:54 -26.83041 -49.21011 2783 ft 144 kts 278°
2026-05-07 00:54 -26.82947 -49.22134 2957 ft 145 kts 278°
2026-05-07 00:54 -26.82861 -49.23260 3122 ft 145 kts 278°
2026-05-07 00:55 -26.82779 -49.24373 3293 ft 142 kts 279°
2026-05-07 00:55 -26.82731 -49.25107 3400 ft 142 kts 278°
2026-05-07 00:55 -26.82634 -49.26576 3623 ft 143 kts 278°
2026-05-07 00:55 -26.82561 -49.27683 3793 ft 142 kts 278°
2026-05-07 00:56 -26.82489 -49.28785 3958 ft 142 kts 279°
2026-05-07 00:56 -26.82440 -49.29528 4072 ft 141 kts 278°
2026-05-07 00:56 -26.82345 -49.30976 4298 ft 141 kts 278°
2026-05-07 00:56 -26.82296 -49.31699 4411 ft 140 kts 278°
2026-05-07 00:57 -26.82224 -49.32783 4567 ft 137 kts 278°
2026-05-07 00:57 -26.82154 -49.33832 4747 ft 134 kts 278°
2026-05-07 00:57 -26.82288 -49.34870 4908 ft 137 kts 259°
2026-05-07 00:57 -26.82512 -49.35922 5080 ft 140 kts 261°
2026-05-07 00:58 -26.82735 -49.36992 5250 ft 141 kts 261°
2026-05-07 00:58 -26.82955 -49.38062 5420 ft 141 kts 261°
2026-05-07 00:58 -26.83175 -49.39133 5593 ft 141 kts 261°
2026-05-07 00:58 -26.83394 -49.40191 5761 ft 141 kts 261°
2026-05-07 00:59 -26.83836 -49.42277 6096 ft 136 kts 261°
2026-05-07 00:59 -26.84056 -49.43303 6260 ft 135 kts 261°
2026-05-07 00:59 -26.84275 -49.44315 6433 ft 132 kts 261°
2026-05-07 01:00 -26.84486 -49.45300 6598 ft 129 kts 261°
2026-05-07 01:00 -26.84695 -49.46276 6767 ft 129 kts 261°
2026-05-07 01:00 -26.84900 -49.47270 6755 ft 139 kts 261°
2026-05-07 01:00 -26.85131 -49.48395 6552 ft 156 kts 261°
2026-05-07 01:01 -26.85375 -49.49596 6499 ft 157 kts 261°
2026-05-07 01:01 -26.85604 -49.50777 6503 ft 153 kts 264°
2026-05-07 01:01 -26.85742 -49.51960 6501 ft 154 kts 267°
2026-05-07 01:01 -26.85875 -49.53160 6508 ft 156 kts 267°
2026-05-07 01:02 -26.86007 -49.54363 6514 ft 155 kts 267°
2026-05-07 01:02 -26.86140 -49.55571 6514 ft 157 kts 267°
2026-05-07 01:02 -26.86272 -49.56796 6516 ft 159 kts 267°
2026-05-07 01:02 -26.86404 -49.58026 6515 ft 159 kts 267°
2026-05-07 01:03 -26.86533 -49.59237 6517 ft 158 kts 267°
2026-05-07 01:03 -26.86666 -49.60460 6516 ft 158 kts 267°
2026-05-07 01:03 -26.86795 -49.61684 6519 ft 159 kts 267°
2026-05-07 01:03 -26.86928 -49.62911 6516 ft 159 kts 267°
2026-05-07 01:04 -26.87064 -49.64144 6522 ft 160 kts 266°
2026-05-07 01:04 -26.87199 -49.65376 6522 ft 158 kts 267°
2026-05-07 01:04 -26.87332 -49.66593 6515 ft 157 kts 267°
2026-05-07 01:04 -26.87465 -49.67809 6520 ft 158 kts 267°
2026-05-07 01:05 -26.87596 -49.69032 6522 ft 158 kts 267°
2026-05-07 01:05 -26.87727 -49.70252 6520 ft 158 kts 266°
2026-05-07 01:05 -26.87842 -49.71482 6517 ft 157 kts 268°
2026-05-07 01:05 -26.87970 -49.72691 6521 ft 156 kts 267°
2026-05-07 01:06 -26.88102 -49.73904 6516 ft 157 kts 267°
2026-05-07 01:06 -26.88234 -49.75120 6523 ft 157 kts 267°
2026-05-07 01:06 -26.88364 -49.76346 6527 ft 160 kts 267°
2026-05-07 01:06 -26.88495 -49.77587 6526 ft 161 kts 267°
2026-05-07 01:07 -26.88629 -49.78833 6522 ft 162 kts 267°
2026-05-07 01:07 -26.88763 -49.80067 6522 ft 161 kts 268°
2026-05-07 01:07 -26.88897 -49.81312 6527 ft 161 kts 267°
2026-05-07 01:07 -26.89032 -49.82553 6521 ft 160 kts 268°
2026-05-07 01:08 -26.89166 -49.83787 6525 ft 159 kts 267°
2026-05-07 01:08 -26.89299 -49.85023 6526 ft 161 kts 268°
2026-05-07 01:08 -26.89433 -49.86264 6516 ft 159 kts 267°
2026-05-07 01:08 -26.89564 -49.87489 6518 ft 158 kts 268°
2026-05-07 01:09 -26.89689 -49.88705 6512 ft 155 kts 268°
2026-05-07 01:09 -26.89804 -49.89888 6523 ft 155 kts 268°
2026-05-07 01:09 -26.89934 -49.91094 6516 ft 157 kts 268°
2026-05-07 01:09 -26.90071 -49.92315 6519 ft 158 kts 267°
2026-05-07 01:10 -26.90200 -49.93528 6519 ft 156 kts 268°
2026-05-07 01:10 -26.90319 -49.94733 6520 ft 156 kts 268°
2026-05-07 01:10 -26.90448 -49.95952 6529 ft 160 kts 268°
2026-05-07 01:10 -26.90581 -49.97194 6526 ft 161 kts 268°
2026-05-07 01:11 -26.90716 -49.98440 6529 ft 161 kts 268°
2026-05-07 01:11 -26.90849 -49.99678 6525 ft 159 kts 267°
2026-05-07 01:11 -26.90983 -50.00907 6529 ft 159 kts 268°
2026-05-07 01:11 -26.91114 -50.02126 6530 ft 160 kts 268°
2026-05-07 01:12 -26.91250 -50.03359 6526 ft 159 kts 268°
2026-05-07 01:12 -26.91385 -50.04588 6534 ft 159 kts 268°
2026-05-07 01:12 -26.91520 -50.05821 6525 ft 159 kts 268°
2026-05-07 01:12 -26.91655 -50.07059 6537 ft 162 kts 268°
2026-05-07 01:13 -26.91792 -50.08310 6532 ft 161 kts 268°
2026-05-07 01:13 -26.91928 -50.09543 6533 ft 157 kts 268°
2026-05-07 01:13 -26.92064 -50.10764 6543 ft 158 kts 268°
2026-05-07 01:13 -26.92200 -50.11998 6538 ft 161 kts 268°
2026-05-07 01:14 -26.92340 -50.13241 6538 ft 160 kts 266°
2026-05-07 01:14 -26.92579 -50.14469 6538 ft 162 kts 262°
2026-05-07 01:14 -26.92833 -50.15684 6538 ft 163 kts 262°
2026-05-07 01:14 -26.93091 -50.16939 6536 ft 163 kts 262°
2026-05-07 01:15 -26.93273 -50.18165 6538 ft 160 kts 269°
2026-05-07 01:15 -26.93371 -50.19408 6529 ft 159 kts 270°
2026-05-07 01:15 -26.93472 -50.20639 6533 ft 158 kts 270°
2026-05-07 01:15 -26.93574 -50.21866 6533 ft 158 kts 270°
2026-05-07 01:16 -26.93674 -50.23105 6540 ft 161 kts 270°
2026-05-07 01:16 -26.93770 -50.24343 6531 ft 159 kts 270°
2026-05-07 01:16 -26.93865 -50.25574 6525 ft 158 kts 269°
2026-05-07 01:16 -26.93988 -50.26786 6534 ft 155 kts 269°
2026-05-07 01:17 -26.94099 -50.27989 6537 ft 157 kts 270°
2026-05-07 01:17 -26.94199 -50.29210 6537 ft 157 kts 270°
2026-05-07 01:17 -26.94295 -50.30434 6550 ft 159 kts 270°
2026-05-07 01:17 -26.94390 -50.31676 6554 ft 161 kts 270°
2026-05-07 01:18 -26.94491 -50.32945 6546 ft 163 kts 270°
2026-05-07 01:18 -26.94597 -50.34198 6546 ft 159 kts 270°
2026-05-07 01:18 -26.94694 -50.35427 6544 ft 158 kts 270°
2026-05-07 01:18 -26.94787 -50.36644 6544 ft 156 kts 270°
2026-05-07 01:19 -26.94881 -50.37850 6547 ft 159 kts 270°
2026-05-07 01:19 -26.94982 -50.39102 6548 ft 160 kts 270°
2026-05-07 01:19 -26.95083 -50.40315 6544 ft 157 kts 270°
2026-05-07 01:19 -26.95185 -50.41535 6549 ft 157 kts 270°
2026-05-07 01:20 -26.95289 -50.42767 6560 ft 161 kts 270°
2026-05-07 01:20 -26.95387 -50.44008 6551 ft 159 kts 270°
2026-05-07 01:20 -26.95488 -50.45248 6548 ft 159 kts 270°
2026-05-07 01:20 -26.95589 -50.46484 6564 ft 159 kts 270°
2026-05-07 01:21 -26.95692 -50.47731 6561 ft 161 kts 270°
2026-05-07 01:21 -26.95797 -50.48971 6559 ft 160 kts 270°
2026-05-07 01:21 -26.95904 -50.50215 6564 ft 161 kts 271°
2026-05-07 01:21 -26.96011 -50.51466 6558 ft 159 kts 270°
2026-05-07 01:22 -26.96109 -50.52683 6561 ft 159 kts 270°
2026-05-07 01:22 -26.96210 -50.53908 6554 ft 158 kts 271°
2026-05-07 01:22 -26.96317 -50.55123 6554 ft 157 kts 270°
2026-05-07 01:22 -26.96422 -50.56344 6556 ft 157 kts 270°
2026-05-07 01:23 -26.96527 -50.57570 6559 ft 159 kts 270°
2026-05-07 01:23 -26.96634 -50.58807 6553 ft 160 kts 270°
2026-05-07 01:23 -26.96739 -50.60053 6554 ft 162 kts 270°
2026-05-07 01:23 -26.96844 -50.61301 6562 ft 161 kts 270°
2026-05-07 01:24 -26.96952 -50.62549 6554 ft 160 kts 271°
2026-05-07 01:24 -26.97061 -50.63785 6567 ft 161 kts 270°
2026-05-07 01:24 -26.97164 -50.65049 6561 ft 164 kts 270°
2026-05-07 01:24 -26.97265 -50.66315 6560 ft 162 kts 271°
2026-05-07 01:25 -26.97365 -50.67565 6559 ft 160 kts 270°
2026-05-07 01:25 -26.97470 -50.68806 6559 ft 160 kts 270°
2026-05-07 01:25 -26.97572 -50.70041 6561 ft 159 kts 270°
2026-05-07 01:25 -26.97672 -50.71279 6562 ft 160 kts 271°
2026-05-07 01:26 -26.97773 -50.72537 6563 ft 163 kts 270°
2026-05-07 01:26 -26.97874 -50.73795 6557 ft 161 kts 271°
2026-05-07 01:26 -26.97971 -50.75034 6557 ft 159 kts 271°
2026-05-07 01:26 -26.98067 -50.76266 6556 ft 158 kts 271°
2026-05-07 01:27 -26.98166 -50.77472 6555 ft 157 kts 271°
2026-05-07 01:27 -26.98269 -50.78693 6557 ft 157 kts 271°
2026-05-07 01:27 -26.98369 -50.79918 6561 ft 158 kts 271°
2026-05-07 01:27 -26.98467 -50.81161 6558 ft 161 kts 270°
2026-05-07 01:28 -26.98564 -50.82410 6555 ft 160 kts 271°
2026-05-07 01:28 -26.98663 -50.83654 6560 ft 161 kts 271°
2026-05-07 01:28 -26.98760 -50.84907 6557 ft 162 kts 271°
2026-05-07 01:28 -26.98857 -50.86160 6555 ft 161 kts 271°
2026-05-07 01:29 -26.98950 -50.87403 6555 ft 161 kts 271°
2026-05-07 01:29 -26.99041 -50.88662 6553 ft 163 kts 271°
2026-05-07 01:29 -26.99133 -50.89924 6558 ft 162 kts 271°
2026-05-07 01:29 -26.99227 -50.91192 6561 ft 164 kts 271°
2026-05-07 01:30 -26.99319 -50.92455 6565 ft 166 kts 271°
2026-05-07 01:30 -26.99412 -50.93739 6557 ft 164 kts 271°
2026-05-07 01:30 -26.99390 -50.94998 6563 ft 160 kts 279°
2026-05-07 01:30 -26.99298 -50.96241 6555 ft 160 kts 280°
2026-05-07 01:31 -26.99216 -50.97476 6547 ft 157 kts 280°
2026-05-07 01:31 -26.99137 -50.98691 6550 ft 157 kts 280°
2026-05-07 01:31 -26.99056 -50.99927 6550 ft 161 kts 280°
2026-05-07 01:31 -26.98969 -51.01170 6545 ft 159 kts 280°
2026-05-07 01:32 -26.98882 -51.02398 6544 ft 157 kts 280°
2026-05-07 01:32 -26.98800 -51.03615 6547 ft 156 kts 280°
2026-05-07 01:32 -26.98713 -51.04828 6552 ft 157 kts 280°
2026-05-07 01:32 -26.98628 -51.06045 6546 ft 156 kts 280°
2026-05-07 01:33 -26.98542 -51.07268 6547 ft 158 kts 280°
2026-05-07 01:33 -26.98460 -51.08494 6547 ft 158 kts 280°
2026-05-07 01:33 -26.98380 -51.09705 6546 ft 158 kts 280°
2026-05-07 01:33 -26.98299 -51.10934 6546 ft 158 kts 280°
2026-05-07 01:34 -26.98213 -51.12160 6543 ft 157 kts 281°
2026-05-07 01:34 -26.98127 -51.13386 6545 ft 158 kts 280°
2026-05-07 01:34 -26.98049 -51.14612 6544 ft 157 kts 281°
2026-05-07 01:34 -26.97966 -51.15838 6544 ft 158 kts 280°
2026-05-07 01:35 -26.97883 -51.17059 6540 ft 159 kts 280°
2026-05-07 01:35 -26.97795 -51.18311 6546 ft 159 kts 281°
2026-05-07 01:35 -26.97711 -51.19539 6543 ft 157 kts 281°
2026-05-07 01:35 -26.97731 -51.20740 6508 ft 163 kts 260°
2026-05-07 01:36 -26.98273 -51.21877 6502 ft 166 kts 244°
2026-05-07 01:36 -26.98853 -51.23005 6509 ft 168 kts 246°
2026-05-07 01:36 -26.99434 -51.24130 6510 ft 165 kts 245°
2026-05-07 01:36 -27.00011 -51.25259 6505 ft 167 kts 245°
2026-05-07 01:37 -27.00591 -51.26384 6497 ft 166 kts 245°
2026-05-07 01:37 -27.01169 -51.27502 6501 ft 166 kts 245°
2026-05-07 01:37 -27.01752 -51.28625 6510 ft 166 kts 245°
2026-05-07 01:37 -27.02331 -51.29743 6509 ft 166 kts 245°
2026-05-07 01:38 -27.02904 -51.30859 6495 ft 164 kts 245°
2026-05-07 01:38 -27.03464 -51.31956 6503 ft 166 kts 245°
2026-05-07 01:38 -27.04041 -51.33090 6517 ft 169 kts 245°
2026-05-07 01:38 -27.04622 -51.34233 6510 ft 169 kts 245°
2026-05-07 01:39 -27.05204 -51.35384 6501 ft 169 kts 245°
2026-05-07 01:39 -27.05778 -51.36522 6499 ft 166 kts 246°
2026-05-07 01:39 -27.06352 -51.37651 6503 ft 167 kts 245°
2026-05-07 01:39 -27.06928 -51.38780 6496 ft 166 kts 245°
2026-05-07 01:40 -27.07492 -51.39902 6496 ft 166 kts 246°
2026-05-07 01:40 -27.08062 -51.41033 6504 ft 168 kts 246°
2026-05-07 01:40 -27.08642 -51.42177 6501 ft 168 kts 245°
2026-05-07 01:40 -27.09219 -51.43313 6497 ft 167 kts 245°
2026-05-07 01:41 -27.09787 -51.44443 6502 ft 166 kts 246°
2026-05-07 01:41 -27.10357 -51.45576 6496 ft 167 kts 246°
2026-05-07 01:41 -27.10839 -51.46730 6492 ft 164 kts 256°
2026-05-07 01:41 -27.10972 -51.47969 6481 ft 158 kts 274°
2026-05-07 01:42 -27.11003 -51.49198 6490 ft 159 kts 274°
2026-05-07 01:42 -27.11051 -51.50447 6480 ft 160 kts 274°
2026-05-07 01:42 -27.11101 -51.51684 6481 ft 157 kts 274°
2026-05-07 01:42 -27.11145 -51.52912 6482 ft 158 kts 274°
2026-05-07 01:43 -27.11176 -51.53735 6480 ft 160 kts 274°
2026-05-07 01:43 -27.11224 -51.54991 6486 ft 162 kts 274°
2026-05-07 01:43 -27.11281 -51.56251 6484 ft 161 kts 274°
2026-05-07 01:43 -27.11343 -51.57514 6487 ft 161 kts 274°
2026-05-07 01:44 -27.11398 -51.58765 6484 ft 159 kts 274°
2026-05-07 01:44 -27.11448 -51.60006 6488 ft 160 kts 274°
2026-05-07 01:44 -27.11497 -51.61257 6482 ft 159 kts 274°
2026-05-07 01:44 -27.11545 -51.62495 6485 ft 159 kts 274°
2026-05-07 01:45 -27.11596 -51.63736 6474 ft 157 kts 274°
2026-05-07 01:45 -27.11648 -51.64958 6478 ft 156 kts 274°
2026-05-07 01:45 -27.11700 -51.66170 6477 ft 155 kts 274°
2026-05-07 01:45 -27.11749 -51.67393 6484 ft 159 kts 274°
2026-05-07 01:46 -27.11795 -51.68626 6475 ft 157 kts 274°
2026-05-07 01:46 -27.11838 -51.69825 6480 ft 156 kts 274°
2026-05-07 01:46 -27.11882 -51.71048 6477 ft 157 kts 274°
2026-05-07 01:46 -27.11929 -51.72278 6480 ft 158 kts 274°
2026-05-07 01:47 -27.11980 -51.73511 6476 ft 159 kts 274°
2026-05-07 01:47 -27.12029 -51.74753 6474 ft 159 kts 274°
2026-05-07 01:47 -27.12072 -51.75984 6483 ft 159 kts 275°
2026-05-07 01:47 -27.12121 -51.77229 6480 ft 160 kts 274°
2026-05-07 01:48 -27.12170 -51.78465 6480 ft 159 kts 275°
2026-05-07 01:48 -27.12222 -51.79706 6482 ft 159 kts 274°
2026-05-07 01:48 -27.12269 -51.80952 6474 ft 159 kts 275°
2026-05-07 01:48 -27.12316 -51.82188 6476 ft 158 kts 274°
2026-05-07 01:49 -27.12362 -51.83422 6475 ft 159 kts 274°
2026-05-07 01:49 -27.12411 -51.84663 6474 ft 160 kts 274°
2026-05-07 01:49 -27.12457 -51.85894 6472 ft 156 kts 274°
2026-05-07 01:49 -27.12509 -51.87104 6471 ft 154 kts 274°
2026-05-07 01:50 -27.12552 -51.88318 6476 ft 157 kts 275°
2026-05-07 01:50 -27.12597 -51.89553 6463 ft 159 kts 274°
2026-05-07 01:50 -27.12636 -51.90770 6460 ft 154 kts 276°
2026-05-07 01:50 -27.12684 -51.91971 6459 ft 155 kts 274°
2026-05-07 01:51 -27.12742 -51.93178 6468 ft 156 kts 274°
2026-05-07 01:51 -27.12798 -51.94396 6466 ft 157 kts 274°
2026-05-07 01:51 -27.12844 -51.95609 6466 ft 159 kts 275°
2026-05-07 01:51 -27.12881 -51.96827 6457 ft 152 kts 275°
2026-05-07 01:52 -27.12920 -51.98024 6464 ft 156 kts 275°
2026-05-07 01:52 -27.12972 -51.99250 6470 ft 158 kts 274°
2026-05-07 01:52 -27.13181 -52.00354 6395 ft 132 kts 257°
2026-05-07 01:52 -27.13537 -52.01243 6192 ft 119 kts 254°
2026-05-07 01:53 -27.13886 -52.02046 5960 ft 111 kts 253°
2026-05-07 01:53 -27.14228 -52.02812 5748 ft 109 kts 253°
2026-05-07 01:53 -27.14565 -52.03562 5538 ft 107 kts 253°
2026-05-07 01:53 -27.14898 -52.04295 5332 ft 105 kts 254°
2026-05-07 01:54 -27.15231 -52.05021 5134 ft 104 kts 253°
2026-05-07 01:54 -27.15566 -52.05762 4856 ft 108 kts 254°
2026-05-07 01:54 -27.15940 -52.06538 4506 ft 118 kts 248°
2026-05-07 01:54 -27.16427 -52.07317 4154 ft 126 kts 233°
2026-05-07 01:55 -27.17196 -52.07772 3737 ft 132 kts 183°
2026-05-07 01:55 -27.18030 -52.07513 3454 ft 118 kts 153°
2026-05-07 01:55 -27.18717 -52.07191 3451 ft 103 kts 151°
2026-05-07 01:55 -27.19314 -52.06759 3449 ft 103 kts 139°
2026-05-07 01:56 -27.19863 -52.06269 3444 ft 98 kts 134°
2026-05-07 01:56 -27.20387 -52.05803 3477 ft 94 kts 142°
2026-05-07 01:56 -27.20833 -52.05266 3477 ft 94 kts 133°
2026-05-07 01:56 -27.21256 -52.04715 3469 ft 94 kts 122°
2026-05-07 01:57 -27.21484 -52.04064 3446 ft 83 kts 114°
2026-05-07 01:57 -27.21680 -52.03472 3425 ft 86 kts 100°
2026-05-07 01:57 -27.21622 -52.02752 3440 ft 98 kts 86°
2026-05-07 01:57 -27.21437 -52.02008 3425 ft 104 kts 46°
2026-05-07 01:58 -27.20836 -52.01759 3372 ft 82 kts
2026-05-07 01:58 -27.20349 -52.01966 3277 ft 72 kts 328°
2026-05-07 01:58 -27.19968 -52.02311 3176 ft 73 kts 302°
2026-05-07 01:58 -27.19693 -52.02781 3039 ft 74 kts 302°
2026-05-07 01:59 -27.19419 -52.03262 2905 ft 74 kts 303°
2026-05-07 01:59 -27.19113 -52.03734 2763 ft 76 kts 307°
2026-05-07 01:59 -27.18781 -52.04201 2615 ft 77 kts 309°
2026-05-07 01:59 -27.18437 -52.04658 2465 ft 73 kts 310°
2026-05-07 02:00 -27.18223 -52.04938 2466 ft 21 kts 310°
2026-05-07 02:00 -27.18183 -52.05002 2468 ft 5 kts 124°
2026-05-07 02:00 -27.18231 -52.04924 2466 ft 21 kts 128°
2026-05-07 02:00 -27.18339 -52.04798 2463 ft 15 kts 172°
2026-05-07 02:01 -27.18360 -52.04807 2462 ft 0 kts 226°
2026-05-07 02:01 -27.18363 -52.04810 2462 ft 5 kts 226°
2026-05-07 02:01 -27.18382 -52.04829 2465 ft 0 kts 216°